PROFILE

 METAR AND TAF INFORMATION
ADDS - METARS form results

(0615 UTC 09 August 2020)
http://aviationweather.gov/metar/data/
 
ENAT 090550Z AUTO 36015KT 9999 R11///// R29/P2000N // SCT022/// 15/13 Q1014 RMK WIND 700FT 35013KT
ENAT 090520Z AUTO 01010KT 9999 R11///// R29/P2000N // FEW022/// SCT030/// 16/13 Q1013 RERA RMK WIND 700FT VRB06KT
TAF ENAT 090500Z 0906/0915 33008KT 9999 -RA FEW008 BKN018 TEMPO 0906/0909 03010KT TEMPO 0906/0912 FEW006 BKN012 

 AIRPORT MAP

 RUNWAY INFORMATION
Runway 11 Runway length 7165 ft Runway width 131 ft
Runway elevation 8 ft Runway displaced threshold 674 ft Runway heading 121
Runway 29 Runway length 7165 ft Runway width 131 ft
Runway elevation 7 ft Runway displaced threshold 418 ft Runway heading 301

 AIRPORT FREQUENCIES
Type ATIS Name ATIS Frequency 118.175 MHZ
Type TWR Name TWR Frequency 118.1 MHZ

 AIRPORT NEAR NAVIGATION AIDS
Type NDB Name Alta Frequency 358 KHZ
Type VOR-DME Name Alta Frequency 117400 KHZ